Location: Newark
(43.0000°N, 1.6781°W)
Time: 00:34:17
(UTC+00:00)

PCSat - Visible Passes

Search period start: 01 December 2022 00:00
Search period end: 11 December 2022 00:00
Orbit: 785 x 793 km, 67.1° (Epoch: 30 November)

Date Brightness Start Highest point End Pass type
(mag) Time Alt. Az. Time Alt. Az. Time Alt. Az.
01 Dec 12.5 03:07:19 11° ENE 03:07:19 11° ENE 03:07:42 10° ENE visible
01 Dec 9.8 04:48:03 53° N 04:49:11 68° ENE 04:54:34 10° SE visible
01 Dec 11.1 06:28:48 11° WNW 06:31:58 18° WSW 06:35:28 10° SW visible
01 Dec 11.8 19:25:57 10° S 19:26:35 13° S 19:26:35 13° S visible
02 Dec 10.3 04:18:28 48° ENE 04:18:28 48° ENE 04:23:11 10° SE visible
02 Dec 10.7 05:59:13 21° W 06:00:59 25° WSW 06:05:16 10° SSW visible
02 Dec 11.1 18:55:09 10° S 18:57:13 22° SSE 18:57:13 22° SSE visible
03 Dec 11.5 03:48:58 26° E 03:48:58 26° E 03:51:40 10° ESE visible
03 Dec 10.2 05:29:43 34° WSW 05:29:56 34° WSW 05:34:45 10° S visible
03 Dec 10.8 18:24:34 10° SSE 18:27:47 24° SE 18:27:47 24° SE visible
03 Dec 11.8 20:06:56 10° SW 20:08:33 19° WSW 20:08:33 19° WSW visible
04 Dec 12.4 03:19:31 12° ESE 03:19:31 12° ESE 03:20:00 10° ESE visible
04 Dec 10.3 05:00:17 38° SSW 05:00:17 38° SSW 05:04:00 10° S visible
04 Dec 10.9 17:54:16 10° SSE 17:58:01 19° ESE 17:58:19 19° ESE visible
04 Dec 10.7 19:35:31 10° SW 19:39:03 40° WSW 19:39:03 40° WSW visible
05 Dec 11.1 04:30:54 25° S 04:30:54 25° S 04:33:05 10° SSE visible
05 Dec 11.3 17:24:27 10° SE 17:27:03 14° ESE 17:28:45 12° E visible
05 Dec 9.5 19:04:14 10° SSW 19:09:30 82° W 19:09:30 82° W visible
06 Dec 12.1 04:01:33 12° SSE 04:01:33 12° SSE 04:01:59 10° SSE visible
06 Dec 9.4 18:33:06 10° SSW 18:38:28 72° ESE 18:39:51 50° NE visible
06 Dec 12.0 20:18:18 10° W 20:20:35 18° WNW 20:20:35 18° WNW visible
07 Dec 9.7 18:02:07 10° S 18:07:20 52° ESE 18:10:07 27° NE visible
07 Dec 11.3 19:46:26 10° WSW 19:50:51 27° NW 19:50:51 27° NW visible
08 Dec 10.2 17:31:18 10° S 17:36:15 38° ESE 17:40:18 15° NE visible
08 Dec 10.9 19:14:42 10° WSW 19:19:38 35° NW 19:21:01 30° NNW visible
09 Dec 10.6 17:00:43 10° SSE 17:05:12 27° ESE 17:09:43 10° NE visible
09 Dec 10.4 18:43:07 10° SW 18:48:19 46° NW 18:51:08 25° N visible
09 Dec 12.5 20:31:47 10° NW 20:31:51 10° NW 20:31:51 10° NW visible
10 Dec 10.0 18:11:42 10° SW 18:17:03 61° WNW 18:21:10 17° NNE visible
10 Dec 12.1 19:58:56 10° WNW 20:01:33 13° NW 20:01:53 13° NNW visible
